EDT,Max TemperatureF,Mean TemperatureF,Min TemperatureF,Max Dew PointF,MeanDew PointF,Min DewpointF,Max Humidity, Mean Humidity, Min Humidity, Max Sea Level PressureIn, Mean Sea Level PressureIn, Min Sea Level PressureIn, Max VisibilityMiles, Mean VisibilityMiles, Min VisibilityMiles, Max Wind SpeedMPH, Mean Wind SpeedMPH, Max Gust SpeedMPH,PrecipitationIn, CloudCover, Events, WindDirDegrees
2013-4-1,64,53,41,48,40,30,100,67,34,29.97,29.93,29.85,10,8,0,21,8,28,T,3,Fog-Rain,339
2013-4-2,57,47,37,30,23,16,64,42,20,30.16,30.08,29.97,10,10,10,24,10,28,0.00,2,,346
2013-4-3,59,49,38,27,17,14,49,34,19,30.24,30.19,30.13,10,10,10,14,7,17,0.00,2,,345
2013-4-4,48,41,34,36,32,21,92,65,37,30.22,30.11,29.96,10,7,1,8,3,13,0.62,8,Rain,202
2013-4-5,58,48,38,39,36,28,100,67,33,30.08,29.98,29.92,10,10,10,24,11,31,0.00,5,,345
2013-4-6,66,49,32,38,32,30,96,62,28,30.22,30.15,30.09,10,10,10,16,6,21,0.00,0,,153
2013-4-7,68,56,43,43,38,33,65,52,39,30.19,30.13,30.07,10,10,10,21,9,28,0.00,0,,175
2013-4-8,73,58,42,50,46,41,96,69,41,30.15,30.10,30.06,10,10,10,22,8,29,0.00,0,Tornado,185
2013-4-9,80,63,46,54,50,45,93,66,39,30.20,30.12,30.08,10,10,9,18,5,24,0.00,0,,178
2013-4-10,83,66,49,55,52,48,93,65,36,30.13,30.04,29.94,10,10,8,17,5,23,0.00,0,,190
2013-4-11,75,66,57,63,56,51,93,70,46,29.95,29.83,29.68,10,9,3,23,9,37,0.87,4,Rain-Thunderstorm,174
2013-4-12,68,60,52,61,52,35,97,69,40,29.87,29.72,29.62,10,9,2,24,12,30,0.55,4,Rain-Thunderstorm,319
2013-4-13,70,58,46,37,34,28,66,44,22,30.04,29.95,29.86,10,10,10,22,11,30,0.00,0,,352
2013-4-14,69,54,39,50,40,35,92,61,30,30.12,30.04,29.99,10,10,7,18,6,24,0.03,3,Rain,164
2013-4-15,65,58,51,54,52,50,100,84,67,30.20,30.06,29.96,10,8,2,14,4,18,0.15,8,Rain,166
2013-4-16,76,66,56,57,55,54,93,72,50,30.31,30.23,30.17,10,10,7,13,5,16,0.00,6,,165
2013-4-17,76,66,55,61,58,54,93,75,57,30.28,30.20,30.12,10,9,1,24,3,32,0.31,4,Rain-Thunderstorm,352
2013-4-18,74,66,57,60,56,52,100,75,49,30.17,30.08,29.92,10,10,10,20,8,26,T,7,Rain,157
2013-4-19,67,55,43,63,56,33,96,81,65,29.94,29.82,29.73,10,9,2,23,15,36,0.57,7,Rain,194
2013-4-20,58,48,37,32,27,23,67,47,27,30.28,30.13,29.94,10,10,10,29,14,36,0.00,0,,346
2013-4-21,60,47,33,37,31,26,92,62,32,30.42,30.36,30.29,10,10,10,14,3,21,0.00,0,,131
2013-4-22,64,52,39,38,35,31,85,59,32,30.40,30.31,30.19,10,10,10,12,3,23,0.00,2,,170
2013-4-23,70,52,34,44,38,33,100,66,32,30.27,30.18,30.09,10,10,9,14,4,20,0.00,0,,167
2013-4-24,71,58,44,55,49,42,92,73,53,30.13,30.07,30.01,10,10,10,28,10,33,T,3,Rain,204
2013-4-25,66,54,42,44,29,13,86,49,12,30.32,30.22,30.11,10,10,10,24,12,31,0.00,2,,348
2013-4-26,65,53,40,38,32,28,65,47,28,30.40,30.35,30.31,10,10,10,14,5,21,0.00,1,,73
2013-4-27,55,53,50,52,49,42,100,81,61,30.37,30.31,30.24,10,7,2,8,3,13,0.82,8,Rain,154
2013-4-28,52,50,47,52,49,45,100,93,86,30.26,30.17,30.04,10,5,1,10,4,14,1.95,8,Rain,173
2013-4-29,70,61,51,55,53,49,100,74,47,30.08,30.01,29.93,10,10,10,13,3,17,0.02,6,Rain,150
2013-4-30,73,61,49,57,51,48,100,75,49,30.21,30.06,29.98,10,5,0,14,3,20,0.00,5,Fog,166